Date,TemperatureHighF,TemperatureAvgF,TemperatureLowF,DewpointHighF,DewpointAvgF,DewpointLowF,HumidityHigh,HumidityAvg,HumidityLow,PressureMaxIn,PressureMinIn,WindSpeedMaxMPH,WindSpeedAvgMPH,GustSpeedMaxMPH,PrecipitationSumIn
2013-10-1,87,78,72,77,74,72,99,89,70,29.98,29.89,14,3,17,0.02
2013-10-2,87,79,73,76,74,72,97,85,64,30.02,29.92,13,3,15,0.00
2013-10-3,89,80,75,77,74,66,98,81,48,29.99,29.90,11,3,15,0.00
2013-10-4,90,81,75,79,75,74,97,85,64,29.96,29.90,15,3,19,0.00
2013-10-5,89,80,74,78,75,73,97,86,64,29.95,29.84,8,3,13,0.00
2013-10-6,77,69,61,75,60,50,96,75,44,30.03,29.88,18,6,24,0.00
2013-10-7,77,64,53,56,52,49,90,67,42,30.11,30.01,12,3,15,0.00
2013-10-8,77,65,54,60,56,52,94,75,49,30.10,30.00,9,1,12,0.00
2013-10-9,81,67,55,62,58,54,96,75,46,30.10,30.01,5,1,10,0.00
2013-10-10,83,70,58,68,63,57,97,80,54,30.09,29.97,10,1,10,0.01
2013-10-11,86,74,64,75,70,63,98,87,66,30.01,29.92,9,2,13,0.03
2013-10-12,89,79,71,78,74,68,98,86,64,30.11,29.94,11,3,20,0.16
2013-10-13,80,73,69,74,71,68,99,92,79,30.16,30.03,9,3,13,0.00
2013-10-14,86,76,71,74,71,70,97,85,61,30.11,29.98,9,2,10,0.00
2013-10-15,86,77,70,73,71,69,98,82,59,30.02,29.91,10,2,15,0.00
2013-10-16,84,76,70,74,71,68,98,86,66,29.97,29.89,9,2,11,0.00
2013-10-17,71,66,59,68,64,59,97,91,77,30.06,29.95,10,3,14,0.00
2013-10-18,72,64,56,62,58,55,99,84,59,30.04,29.89,14,3,17,0.01
2013-10-19,65,61,52,62,58,51,98,90,75,30.08,29.93,16,4,20,0.48
2013-10-20,74,59,46,58,52,46,98,81,46,30.11,29.97,7,1,10,0.01
2013-10-21,74,64,55,67,61,53,96,89,76,30.05,29.93,8,2,12,0.02
2013-10-22,69,64,54,66,61,52,98,90,73,30.07,29.96,13,3,17,0.00
2013-10-23,79,63,50,57,52,48,98,74,36,30.14,30.06,11,1,12,0.00
2013-10-24,57,54,52,54,52,51,97,95,92,30.19,30.12,0,0,2,0.00
2013-10-31,67,64,62,66,64,61,99,98,98,29.89,29.79,3,1,7,2.90